{"data":{"norad_id":58689,"intl_designator":"2023-211Y","name":"STARLINK-31106","alt_names":[],"object_type":"PAYLOAD","status":"ACTIVE","operator":null,"country":"US","launch_date":"2023-12-29","launch_site_code":"AFETR","launch_vehicle":null,"mission":null,"orbit_class":"UNKNOWN","rcs_meters":null,"size_class":null,"mass_kg":null,"dimensions":null,"purposes":["comms"],"wikipedia_slug":null,"has_3d_model":false,"image_url":null,"decayed_at":null,"tle_current":{"epoch":"2026-09-19T21:09:05.781024Z","epoch_age_seconds":203290,"freshness":"STALE","line1":"1 58689U 23211Y   26262.88131691  .00005075  00000+0  19369-3 0  9997","line2":"2 58689  43.0013  68.5881 0001217 265.3881  94.6831 15.27602071152166","mean_motion":15.27602071,"eccentricity":0.0001217,"inclination_deg":43.0013,"raan_deg":68.5881,"arg_perigee_deg":265.3881,"mean_anomaly_deg":94.6831,"bstar":0.00019369,"rev_number":15216,"period_min":94.265386734999,"perigee_km":482.14801001635,"apogee_km":483.81800662638,"semimajor_km":6861.1200083214,"source":"CELESTRAK","updated_at":"2026-09-21T09:00:33.946333Z"}}}